COSMOS 2251 DEB, 33945

Orbit data source: Space-Track

COSMOS 2251 DEB, 33945 is space debris in LEO originally from a launch on Wed, 16 Jun 1993 UTC launched from the Plesetsk Missile And Space Complex (PKMTR). The debris from Iridium 33, an American commercial communications satellite, has been tracked extensively since its accidental collision with the defunct Russian satellite Cosmos 2251 in 2009. This event, occurring at high speed in low Earth orbit (LEO), generated thousands of pieces of space debris, significantly increasing the risk of further collisions. The Iridium 33 debris cloud has impacted space traffic management and orbital debris mitigation strategies, making it a subject of ongoing study in space situational awareness.

Loading next visibility...
Identifier
33945, 1993-036FA
Orbit
LEO
Country
Flag of CISCIS
Related business
Manufacturer
Unknown
Mission
Spacecraft
Bus & Motor
Unknown
Mass
Unknown
Launch date (UTC)
1993-06-16 (33 years ago)
Launch vehicle
Unknown
Launch site
Plesetsk Missile And Space Complex (PKMTR)
Object type
Payload
Rocket body
Debris
Shape & HBR
Unknown shape, 0.3 m
Radar Cross Section
Medium (>0.1 m² and <1 m²)

Expand to show TLE details & history
Last TLE update: 17 hours ago

TLE from 17 hours ago
0 COSMOS 2251 DEB
1 33945U 93036FA  26266.06455045  .00000139  00000-0  58207-4 0  9995
2 33945  74.0293 145.2045 0022635 168.5647 191.6024 14.34774748920932
Epoch: 2026-09-23T01:32Z
TLE epoch observation values (Epoch: 2026-09-23T01:32:57.158Z)
Latitude
-0.00008°
Longitude
120.04528°
Altitude
794.291 km
Speed
7.448 km/s
True Right ascension
09h 40m 49s
True Declination
0° 00' 00"
Sunlit
Object was in daylight at epoch
Visualization orbit readout
Latitude
Unknown
Longitude
Unknown
Altitude
Unknown
Speed
Unknown
Apparent Right ascension
Unknown
Apparent Declination
Unknown
Sunlit
N/A
Visualization observer readout
Local Sidereal Time
11:46:25
Azimuth
Unknown
Elevation
Unknown
Doppler factor
Unknown
Orbital elements
Apogee altitude
789.629 km
Perigee altitude
757.253 km
Semi-major axis
7,151.578 km
Eccentricity
0.00226
Inclination
74.0293°
RAAN
145.2045°
Arg. of periapsis
168.5647°
True anomaly
191.55038°
Mean anomaly
191.6024°
Eccentric anomaly
191.57637°
Mean motion
3.58873 °/min
Orbital period
100.31 mins
BSTAR
0.000058207

Documentation

Showing up to 5 results
|